Location: Kelowna
(49.8880°N, 119.4960°W)
Time: 15:38:48
(UTC-07:00)

AO-27 - Pass Details

Date: 09 August 2024
Orbit: 783 x 796 km, 98.8° (Epoch: 14 September)

Event Time Altitude Azimuth Distance (km) Brightness Sun altitude
Rises 23:14:51 0° 225° (SW) 3,283 10.7 -20.5°
Reaches altitude 10° 23:19:22 10° 262° (W) 2,365 10.3 -20.8°
Maximum altitude 23:20:36 11° 276° (W) 2,314 10.5 -20.9°
Drops below altitude 10° 23:21:50 10° 290° (WNW) 2,371 10.7 -21.0°
Sets 23:26:25 0° 327° (NNW) 3,311 12.4 -21.3°
